Location: Sternwarte Radebeul
(51.1160°N, 13.6224°E)
Time: 21:57:55
(UTC+01:00)

ISS - Pass Details

Date: 24 January 2020
Orbit: 415 x 423 km, 51.6° (Epoch: 25 February)

Event Time Altitude Azimuth Distance (km) Brightness Sun altitude
Rises 19:56:37 0° 261° (W) 2,377 1.1 -30.3°
Reaches altitude 10° 19:58:44 10° 262° (W) 1,512 -0.1 -30.6°
Enters shadow 19:59:12 13° 262° (W) 1,318 -0.5 -30.7°
